TimeMDT,TemperatureF,Dew PointF,Humidity,Sea Level PressureIn,VisibilityMPH,Wind Direction,Wind SpeedMPH,Gust SpeedMPH,PrecipitationIn,Events,Conditions,WindDirDegrees,DateUTC
12:52 AM,52.0,41.0,66,29.95,10.0,East,6.9,-,N/A,,Overcast,100,2012-09-11 06:52:00
1:52 AM,53.1,41.0,64,29.95,10.0,ESE,5.8,-,N/A,,Overcast,120,2012-09-11 07:52:00
2:52 AM,55.0,42.1,62,29.93,10.0,ENE,3.5,-,N/A,,Overcast,70,2012-09-11 08:52:00
3:52 AM,55.0,44.1,67,29.92,10.0,ESE,6.9,-,0.00,,Overcast,110,2012-09-11 09:52:00
4:52 AM,54.0,45.0,72,29.93,10.0,East,6.9,-,0.00,,Overcast,100,2012-09-11 10:52:00
5:52 AM,51.1,45.0,80,29.96,10.0,Calm,Calm,-,N/A,,Scattered Clouds,0,2012-09-11 11:52:00
6:52 AM,52.0,43.0,71,29.98,10.0,South,5.8,-,N/A,,Scattered Clouds,180,2012-09-11 12:52:00
7:52 AM,55.0,45.0,69,30.02,10.0,Calm,Calm,-,N/A,,Clear,0,2012-09-11 13:52:00
8:52 AM,60.1,44.1,55,30.00,10.0,Calm,Calm,-,N/A,,Clear,0,2012-09-11 14:52:00
9:52 AM,66.0,46.0,48,30.00,10.0,SSW,4.6,-,N/A,,Clear,210,2012-09-11 15:52:00
10:52 AM,69.1,43.0,39,29.99,10.0,SSW,5.8,-,N/A,,Scattered Clouds,210,2012-09-11 16:52:00
11:52 AM,72.0,41.0,33,29.95,10.0,Variable,6.9,-,N/A,,Overcast,0,2012-09-11 17:52:00
12:52 PM,75.9,39.9,27,29.92,10.0,WSW,6.9,-,N/A,,Clear,250,2012-09-11 18:52:00
1:52 PM,66.9,45.0,45,29.93,8.0,West,33.4,39.1,0.00,Rain,Light Rain,270,2012-09-11 19:52:00
2:04 PM,62.6,48.2,59,30.18,9.0,NW,19.6,31.1,0.00,Rain-Thunderstorm,Light Thunderstorms and Rain,310,2012-09-11 20:04:00
2:23 PM,69.8,44.6,40,30.17,10.0,NW,8.1,-,0.00,,Overcast,310,2012-09-11 20:23:00
2:52 PM,73.9,43.0,33,29.87,10.0,NNE,5.8,-,0.00,,Scattered Clouds,30,2012-09-11 20:52:00
3:52 PM,73.9,42.1,32,29.86,10.0,SSE,11.5,-,0.00,,Partly Cloudy,150,2012-09-11 21:52:00
4:37 PM,71.6,42.8,35,30.15,10.0,SE,17.3,26.5,N/A,Thunderstorm,Mostly Cloudy,140,2012-09-11 22:37:00
4:52 PM,69.8,44.6,40,30.15,10.0,SSE,13.8,-,N/A,Thunderstorm,Overcast,160,2012-09-11 22:52:00
5:06 PM,62.6,48.2,59,30.17,9.0,South,18.4,24.2,0.00,Rain-Thunderstorm,Light Rain,190,2012-09-11 23:06:00
5:17 PM,60.8,48.2,63,30.17,5.0,South,13.8,29.9,0.02,Rain,Rain,170,2012-09-11 23:17:00
5:52 PM,61.0,53.1,75,29.95,10.0,SE,8.1,-,0.05,Rain,Light Rain,140,2012-09-11 23:52:00
6:52 PM,60.1,53.1,78,29.95,10.0,NE,4.6,-,0.00,,Overcast,50,2012-09-12 00:52:00
7:52 PM,55.9,51.1,84,29.99,9.0,NNE,4.6,-,0.00,Rain,Light Rain,20,2012-09-12 01:52:00
8:28 PM,55.4,51.8,88,30.23,10.0,West,13.8,-,0.01,Rain,Light Rain,280,2012-09-12 02:28:00
8:52 PM,55.0,52.0,89,30.01,10.0,West,5.8,-,0.01,Rain,Light Rain,280,2012-09-12 02:52:00
9:52 PM,54.0,51.1,90,29.99,10.0,SSE,5.8,-,0.01,,Overcast,160,2012-09-12 03:52:00
10:52 PM,54.0,52.0,93,29.98,10.0,SSE,8.1,-,0.00,Rain,Light Rain,150,2012-09-12 04:52:00
11:52 PM,53.1,51.1,93,29.97,10.0,SSE,8.1,-,0.00,,Mostly Cloudy,150,2012-09-12 05:52:00